| time (UTC) | temp C | wind direction | speed KPH | gust KPH | rain 1hr cm | rain 24hr cm | rain mn cm | humidity % | barometer mb |
| 20260903061509 | 20 | 53 | 0.0 | 6.4 | 0.18 | 1.93 | 1.75 | 96 | 1017.6 |
| 20260903060019 | 20 | 9 | 1.6 | 4.8 | 0.81 | 1.93 | 1.75 | 96 | 1017.6 |
| 20260903054523 | 20 | 352 | 3.2 | 6.4 | 1.45 | 1.93 | 1.75 | 96 | 1017.4 |
| 20260903053028 | 20 | 306 | 0.0 | 3.2 | 1.73 | 1.91 | 1.73 | 96 | 1016.8 |
| 20260903051507 | 20 | 299 | 1.6 | 6.4 | 1.57 | 1.75 | 1.57 | 96 | 1017.0 |
| 20260903050014 | 20 | 27 | 1.6 | 8.0 | 0.94 | 1.12 | 0.94 | 96 | 1018.7 |
| 20260903044521 | 20 | 42 | 1.6 | 9.7 | 0.30 | 0.48 | 0.30 | 95 | 1019.7 |
| 20260903043107 | 21 | 331 | 4.8 | 9.7 | 0.00 | 0.18 | 0.00 | 95 | 1019.3 |
| 20260903041530 | 21 | 17 | 4.8 | 12.9 | 0.00 | 0.18 | 0.00 | 95 | 1018.2 |
| 20260903040017 | 21 | 43 | 1.6 | 6.4 | 0.00 | 0.18 | 0.00 | 95 | 1018.1 |
| 20260903034533 | 21 | 67 | 0.0 | 6.4 | 0.00 | 0.18 | 0.18 | 95 | 1018.2 |
| 20260903033024 | 21 | 330 | 0.0 | 3.2 | 0.00 | 0.18 | 0.18 | 95 | 1018.2 |
| 20260903031531 | 21 | 11 | 1.6 | 3.2 | 0.00 | 0.18 | 0.18 | 95 | 1018.4 |
| 20260903030034 | 21 | 351 | 1.6 | 4.8 | 0.00 | 0.18 | 0.18 | 95 | 1018.2 |
| 20260903024523 | 21 | 26 | 1.6 | 3.2 | 0.00 | 0.18 | 0.18 | 95 | 1017.9 |
| 20260903023022 | 21 | 352 | 1.6 | 3.2 | 0.00 | 0.18 | 0.18 | 95 | 1018.1 |
| 20260903021532 | 21 | 40 | 1.6 | 4.8 | 0.00 | 0.18 | 0.18 | 95 | 1018.2 |
| 20260903020011 | 21 | 40 | 1.6 | 3.2 | 0.00 | 0.18 | 0.18 | 95 | 1018.3 |
| 20260903014503 | 21 | 317 | 0.0 | 4.8 | 0.00 | 0.18 | 0.18 | 95 | 1017.8 |
| 20260903013007 | 21 | 345 | 1.6 | 3.2 | 0.00 | 0.18 | 0.18 | 95 | 1017.7 |
| 20260903011510 | 21 | 40 | 0.0 | 4.8 | 0.00 | 0.18 | 0.18 | 95 | 1017.6 |
| 20260903010004 | 21 | 19 | 0.0 | 3.2 | 0.00 | 0.18 | 0.18 | 95 | 1017.8 |
| 20260903004506 | 21 | 352 | 0.0 | 3.2 | 0.00 | 0.18 | 0.18 | 95 | 1018.1 |
| 20260903003004 | 21 | 43 | 1.6 | 3.2 | 0.00 | 0.18 | 0.18 | 95 | 1018.0 |
| 20260903001504 | 21 | 29 | 1.6 | 3.2 | 0.00 | 0.18 | 0.18 | 95 | 1018.0 |
| 20260903000004 | 21 | 9 | 0.0 | 6.4 | 0.00 | 0.18 | 0.18 | 94 | 1017.7 |
| 20260902234510 | 21 | 38 | 1.6 | 8.0 | 0.00 | 0.18 | 0.18 | 93 | 1017.5 |
| 20260902233004 | 21 | 240 | 1.6 | 9.7 | 0.00 | 0.20 | 0.18 | 93 | 1017.5 |
| 20260902231506 | 22 | 44 | 0.0 | 6.4 | 0.00 | 0.46 | 0.18 | 92 | 1017.5 |
| 20260902230003 | 22 | 29 | 0.0 | 6.4 | 0.00 | 0.64 | 0.18 | 92 | 1017.6 |
| 20260902224505 | 22 | 352 | 0.0 | 3.2 | 0.00 | 0.66 | 0.18 | 93 | 1017.6 |
| 20260902223020 | 22 | 38 | 0.0 | 4.8 | 0.00 | 0.91 | 0.18 | 92 | 1017.9 |
| 20260902221503 | 22 | 59 | 1.6 | 3.2 | 0.00 | 0.94 | 0.18 | 91 | 1018.1 |
| 20260902220006 | 22 | 28 | 0.0 | 3.2 | 0.00 | 0.94 | 0.18 | 91 | 1018.3 |
| 20260902214507 | 22 | 241 | 1.6 | 3.2 | 0.00 | 0.94 | 0.18 | 91 | 1018.2 |
| 20260902213008 | 22 | 33 | 1.6 | 3.2 | 0.03 | 0.94 | 0.18 | 91 | 1018.4 |
| 20260902211508 | 22 | 219 | 1.6 | 3.2 | 0.03 | 0.94 | 0.18 | 90 | 1018.2 |
| 20260902210010 | 22 | 352 | 0.0 | 3.2 | 0.03 | 0.94 | 0.18 | 1018.1 | |
| 20260902204513 | 22 | 308 | 0.0 | 6.4 | 0.03 | 0.94 | 0.18 | 1017.9 | |
| 20260902203010 | 23 | 9 | 1.6 | 3.2 | 0.00 | 0.91 | 0.15 | 91 | 1017.6 |
| 20260902201508 | 22 | 205 | 0.0 | 4.8 | 0.00 | 0.91 | 0.15 | 91 | 1017.6 |
| 20260902200011 | 22 | 297 | 0.0 | 0.0 | 0.00 | 0.91 | 0.15 | 91 | 1018.1 |
| 20260902194518 | 22 | 304 | 0.0 | 1.6 | 0.00 | 0.91 | 0.15 | 91 | 1018.4 |
| 20260902193011 | 22 | 344 | 0.0 | 3.2 | 0.00 | 0.91 | 0.15 | 91 | 1018.7 |
| 20260902191514 | 22 | 344 | 1.6 | 6.4 | 0.00 | 0.91 | 0.15 | 92 | 1018.3 |
| 20260902190019 | 22 | 328 | 1.6 | 8.0 | 0.00 | 0.91 | 0.15 | 92 | 1018.1 |
| 20260902184516 | 22 | 26 | 0.0 | 4.8 | 0.00 | 0.91 | 0.15 | 94 | 1018.3 |
| 20260902183014 | 22 | 46 | 1.6 | 6.4 | 0.00 | 0.91 | 0.15 | 94 | 1018.4 |
| 20260902181516 | 21 | 33 | 0.0 | 3.2 | 0.03 | 0.91 | 0.15 | 94 | 1019.2 |
| 20260902180017 | 21 | 14 | 3.2 | 4.8 | 0.08 | 0.91 | 0.15 | 94 | 1019.5 |
| 20260902174518 | 21 | 25 | 0.0 | 1.6 | 0.13 | 0.91 | 0.15 | 95 | 1019.6 |
| 20260902173015 | 21 | 333 | 0.0 | 0.0 | 0.15 | 0.91 | 0.15 | 94 | 1019.8 |
| 20260902171518 | 21 | 333 | 0.0 | 3.2 | 0.13 | 0.89 | 0.13 | 94 | 1020.0 |
| 20260902170018 | 21 | 244 | 0.0 | 1.6 | 0.08 | 0.84 | 0.08 | 93 | 1019.9 |
| 20260902164516 | 22 | 244 | 0.0 | 3.2 | 0.03 | 0.79 | 0.03 | 92 | 1020.1 |
| 20260902163018 | 22 | 161 | 0.0 | 3.2 | 0.00 | 0.76 | 0.00 | 90 | 1020.3 |
| 20260902161520 | 22 | 213 | 0.0 | 3.2 | 0.00 | 0.76 | 0.00 | 91 | 1020.3 |
| 20260902160012 | 22 | 88 | 0.0 | 6.4 | 0.00 | 0.76 | 0.00 | 91 | 1020.1 |
| 20260902154511 | 22 | 40 | 0.0 | 4.8 | 0.00 | 0.76 | 0.00 | 91 | 1020.1 |
| 20260902153016 | 22 | 315 | 1.6 | 3.2 | 0.00 | 0.76 | 0.00 | 91 | 1019.9 |
| 20260902151520 | 21 | 338 | 1.6 | 4.8 | 0.00 | 0.76 | 0.00 | 92 | 1019.4 |
| 20260902150006 | 21 | 72 | 1.6 | 3.2 | 0.00 | 0.76 | 0.00 | 92 | 1019.6 |
| 20260902144510 | 21 | 340 | 1.6 | 6.4 | 0.00 | 0.76 | 0.00 | 92 | 1020.0 |
| 20260902143015 | 21 | 214 | 0.0 | 3.2 | 0.00 | 0.76 | 0.00 | 93 | 1020.0 |
| 20260902141533 | 21 | 14 | 1.6 | 3.2 | 0.00 | 0.76 | 0.00 | 93 | 1019.9 |
| 20260902140004 | 21 | 30 | 1.6 | 4.8 | 0.00 | 0.76 | 0.00 | 93 | 1020.0 |
| 20260902134510 | 21 | 32 | 1.6 | 6.4 | 0.00 | 0.76 | 0.00 | 93 | 1019.9 |
| 20260902133011 | 21 | 248 | 0.0 | 4.8 | 0.00 | 0.76 | 0.00 | 93 | 1019.7 |
| 20260902131522 | 21 | 36 | 1.6 | 6.4 | 0.00 | 0.76 | 0.00 | 94 | 1019.6 |
| 20260902130026 | 21 | 20 | 1.6 | 4.8 | 0.00 | 0.76 | 0.00 | 94 | 1019.5 |
| 20260902124507 | 21 | 275 | 0.0 | 3.2 | 0.00 | 0.76 | 0.00 | 94 | 1019.2 |
| 20260902123010 | 21 | 142 | 0.0 | 3.2 | 0.00 | 0.76 | 0.00 | 95 | 1019.2 |
| 20260902121519 | 21 | 38 | 0.0 | 3.2 | 0.00 | 0.76 | 0.00 | 96 | 1019.0 |
| 20260902120024 | 21 | 39 | 1.6 | 8.0 | 0.00 | 0.76 | 0.00 | 96 | 1018.8 |
| 20260902114534 | 21 | 280 | 0.0 | 3.2 | 0.00 | 0.76 | 0.00 | 96 | 1018.8 |
| 20260902113009 | 21 | 23 | 0.0 | 3.2 | 0.00 | 0.76 | 0.00 | 97 | 1019.0 |
| 20260902111515 | 21 | 31 | 0.0 | 3.2 | 0.00 | 0.76 | 0.00 | 97 | 1018.6 |
| 20260902110023 | 21 | 35 | 0.0 | 1.6 | 0.00 | 0.76 | 0.00 | 97 | 1018.5 |
| 20260902104537 | 21 | 338 | 0.0 | 3.2 | 0.00 | 0.76 | 0.00 | 97 | 1018.8 |
| 20260902103030 | 21 | 338 | 0.0 | 0.0 | 0.00 | 0.76 | 0.00 | 97 | 1018.7 |
| 20260902101510 | 21 | 338 | 0.0 | 0.0 | 0.00 | 0.76 | 0.00 | 97 | 1018.5 |
| 20260902100029 | 21 | 338 | 0.0 | 1.6 | 0.00 | 0.76 | 0.00 | 97 | 1018.3 |
| 20260902094524 | 21 | 334 | 0.0 | 3.2 | 0.00 | 0.76 | 0.00 | 97 | 1018.3 |
| 20260902093027 | 21 | 338 | 0.0 | 0.0 | 0.00 | 0.76 | 0.00 | 97 | 1018.2 |
| 20260902091541 | 20 | 338 | 0.0 | 0.0 | 0.00 | 0.76 | 0.00 | 97 | 1018.1 |
| 20260902090013 | 20 | 337 | 0.0 | 0.0 | 0.00 | 0.76 | 0.00 | 97 | 1018.1 |
| 20260902084520 | 20 | 337 | 0.0 | 0.0 | 0.00 | 0.76 | 0.00 | 97 | 1018.1 |
| 20260902083025 | 20 | 338 | 0.0 | 0.0 | 0.00 | 0.76 | 0.00 | 97 | 1017.8 |
| 20260902081532 | 20 | 338 | 0.0 | 0.0 | 0.00 | 0.76 | 0.00 | 97 | 1017.6 |
| 20260902080034 | 20 | 338 | 0.0 | 1.6 | 0.00 | 0.76 | 0.00 | 96 | 1017.4 |
| 20260902074517 | 20 | 348 | 1.6 | 3.2 | 0.00 | 0.76 | 0.00 | 97 | 1017.3 |
| 20260902073024 | 20 | 24 | 1.6 | 3.2 | 0.00 | 0.76 | 0.00 | 96 | 1017.1 |
| 20260902071529 | 20 | 348 | 1.6 | 1.6 | 0.00 | 0.76 | 0.00 | 96 | 1017.0 |
| 20260902070033 | 20 | 348 | 0.0 | 0.0 | 0.00 | 0.76 | 0.00 | 96 | 1017.0 |
| 20260902064534 | 20 | 348 | 0.0 | 0.0 | 0.00 | 0.76 | 0.00 | 96 | 1017.2 |
| 20260902063023 | 20 | 348 | 0.0 | 3.2 | 0.00 | 0.76 | 0.00 | 96 | 1017.0 |